EHI
0 0 0 0 0 0 0 0 0 2 6 10 12 15 18 22 26 27 25 26 31 37 41 46 51 54 54 53 51 49 48 50 52 52 48 43 41 38 34 29 27 25 24 24
0 0 0 0 0 0 0 0 0 3 8 13 16 17 17 19 22 23 24 27 32 37 42 45 48 50 50 48 46 46 46 49 51 50 47 42 40 39 34 29 26 25 24 23
0 0 0 0 0 0 0 1 2 6 11 16 19 19 17 16 17 19 24 29 35 39 43 43 41 41 43 41 41 43 45 48 50 48 45 41 40 40 37 31 28 27 24 21
0 0 0 1 1 1 1 2 5 10 14 17 20 21 19 17 17 21 25 29 33 37 40 39 36 36 37 37 39 43 45 46 47 46 43 42 42 42 40 35 31 27 23 20
0 0 1 2 2 2 2 4 8 11 14 15 17 20 21 20 21 24 25 25 27 30 34 36 37 36 36 37 40 43 43 43 44 43 42 42 43 42 40 37 32 25 20 18
0 0 1 2 3 3 4 7 9 12 15 14 15 18 21 22 23 23 22 21 23 26 29 35 38 38 35 35 37 39 40 41 41 40 40 42 43 41 38 36 31 24 19 18
0 0 1 3 3 5 9 13 13 14 18 18 18 20 20 20 20 19 17 19 21 23 25 30 36 37 34 31 31 34 36 37 36 36 36 39 41 40 36 33 29 26 22 20
2 2 4 5 7 9 16 20 19 17 19 20 19 18 17 16 15 14 13 15 17 20 22 26 31 33 31 27 27 30 32 32 32 32 31 34 38 37 33 30 27 25 23 19
5 4 4 7 10 13 16 20 21 19 17 15 13 12 13 13 12 12 13 13 16 20 23 25 27 29 27 26 27 29 29 30 30 29 29 32 35 32 30 28 25 22 20 17
8 6 5 8 11 12 13 15 17 16 13 10 8 9 11 12 12 14 17 17 19 23 24 24 24 24 24 26 28 29 28 28 28 27 28 31 31 27 26 26 23 21 18 16
10 9 10 12 13 12 11 11 13 12 9 7 7 8 10 13 15 18 21 21 21 23 23 21 21 22 23 25 28 28 26 25 24 24 26 27 25 21 19 19 18 16 14 12
11 12 15 15 14 12 11 11 11 10 8 7 7 8 11 15 19 21 23 22 20 21 21 19 20 22 22 24 26 26 24 21 20 21 23 23 20 17 13 10 8 7 5 5
12 13 15 15 13 12 11 11 10 8 6 6 6 7 12 17 20 22 22 19 17 18 18 18 20 21 21 22 26 27 23 19 17 19 21 22 21 17 12 7 3 2 1 1
12 13 13 12 11 11 11 9 8 6 4 4 5 8 13 18 20 21 21 18 16 16 16 17 19 19 19 21 26 27 22 16 15 18 20 22 22 19 13 8 6 4 2 1
11 11 10 9 9 10 8 7 6 5 3 4 7 12 16 19 20 20 19 18 17 16 16 17 18 16 15 18 22 23 19 14 13 15 17 18 20 17 13 10 9 8 6 4
10 9 8 8 7 6 5 5 5 4 5 7 10 14 18 19 19 18 17 16 16 16 16 17 16 14 11 12 15 17 16 12 11 12 13 15 16 14 12 11 10 10 8 7
10 9 8 6 3 2 3 4 5 5 5 8 11 14 16 18 18 17 16 15 15 15 15 15 13 10 8 8 8 10 10 10 10 11 12 13 14 12 11 10 9 8 7 7
8 7 6 3 1 0 2 4 5 4 4 6 9 12 14 16 17 17 15 13 12 13 12 11 9 7 7 6 6 6 7 7 8 10 11 12 12 12 11 10 8 7 6 5
4 4 3 1 0 0 1 3 4 3 3 4 7 11 13 14 15 14 12 10 9 9 8 6 5 5 6 5 5 6 6 6 7 10 10 10 10 11 11 9 8 7 6 5
2 1 1 0 1 2 3 4 4 3 3 4 7 10 11 11 11 11 8 6 6 5 3 3 3 4 4 3 3 4 6 6 7 9 9 10 10 10 10 9 8 7 6 5
1 0 0 1 2 4 5 5 5 4 3 5 8 10 10 9 9 9 7 4 3 2 1 1 1 2 2 2 1 3 5 6 6 7 7 8 10 10 9 8 6 6 5 5
1 0 0 1 4 5 5 4 4 3 4 6 9 10 9 7 7 7 5 3 2 1 0 0 0 1 1 1 0 1 3 3 3 4 4 4 6 6 5 4 4 4 4 4
4 3 2 3 5 6 4 2 3 4 5 8 9 9 7 6 5 4 2 2 1 0 0 0 0 0 0 0 0 0 1 1 1 1 1 1 1 2 1 1 1 2 2 2
6 7 7 6 6 6 5 3 3 6 7 8 9 8 7 5 4 2 1 0 0 0 0 0 0 0 0 1 0 0 0 0 0 0 0 0 0 0 0 0 0 1 1 1
7 8 9 8 7 7 6 4 4 6 6 6 6 6 6 5 4 2 1 0 0 0 0 0 0 0 0 0 0 0 0 0 0 0 0 0 0 0 0 0 0 0 0 0
6 7 8 8 6 5 4 3 3 3 4 4 4 4 4 3 3 2 1 0 0 0 0 0 0 0 0 0 0 0 0 0 0 0 0 0 0 0 0 0 0 0 0 0
4 5 6 6 4 3 2 2 2 2 3 3 3 3 3 2 1 1 0 0 0 0 0 0 0 0 0 0 0 0 0 0 0 0 0 0 0 0 0 0 0 0 0 0
Wind_Speed
12 15 15 13 11 10 11 10 9 6 3 3 5 6 6 6 6 5 4 5 5 4 4 4 4 3 3 3 3 3 3 3 3 3 3 3 3 3 2 2 3 2 2 2
14 15 14 13 11 10 10 10 8 6 2 4 5 5 5 5 5 4 4 3 3 4 4 3 3 2 3 3 2 3 3 2 2 2 3 3 2 2 2 2 2 2 2 2
12 13 14 13 10 8 9 8 6 4 2 5 4 4 4 3 4 4 3 3 3 3 3 3 3 2 2 2 3 3 3 2 2 2 3 3 3 3 3 3 2 2 2 2
11 12 15 9 6 6 7 5 3 1 3 5 5 5 5 5 4 4 4 4 4 3 2 3 3 2 2 2 2 3 3 2 2 2 2 2 2 3 3 2 2 2 2 2
9 12 12 8 5 6 4 4 3 1 4 5 6 6 7 7 6 5 5 4 3 3 3 3 3 2 2 2 2 2 2 2 2 2 2 3 3 3 2 2 2 2 2 2
10 12 11 5 6 5 4 3 2 2 2 3 2 2 4 6 6 6 5 5 4 4 4 4 3 2 1 2 2 1 1 2 2 2 3 3 3 2 2 2 2 2 2 2
12 12 6 4 7 6 5 2 5 4 5 5 5 5 5 6 6 5 5 5 4 4 4 4 4 3 2 2 1 0 1 1 2 2 2 2 2 1 2 2 2 2 2 2
8 10 5 7 5 4 5 6 7 6 7 7 7 6 5 5 5 4 4 4 4 3 4 4 3 3 2 2 1 1 1 0 1 1 2 2 2 2 2 2 3 3 2 2
2 2 2 5 5 4 4 5 6 5 5 6 5 5 5 5 4 3 3 3 3 3 3 3 3 2 2 2 2 1 0 0 1 1 1 2 2 2 2 2 2 2 2 2
2 0 1 2 3 4 5 5 5 5 4 4 4 3 4 3 3 2 2 2 2 3 3 3 3 2 2 2 1 0 1 1 2 2 2 1 1 2 2 2 2 2 2 2
3 3 3 2 4 4 4 4 4 4 4 3 3 2 2 2 2 1 1 2 2 2 2 2 2 2 2 2 2 1 1 1 2 2 1 1 1 1 2 2 2 2 2 1
3 3 3 3 4 5 4 4 4 3 3 3 3 1 0 1 1 1 2 2 1 1 1 1 2 2 2 2 1 1 1 2 2 2 1 1 1 1 1 1 2 2 2 2
4 4 4 4 3 3 3 4 4 4 3 3 3 3 1 1 1 1 1 0 0 1 1 1 1 1 1 1 2 2 2 3 3 2 2 2 2 2 1 1 1 2 3 3
4 4 4 3 3 3 3 3 4 4 3 3 3 3 1 1 1 0 0 1 1 1 1 1 1 1 1 1 1 2 3 3 3 2 2 2 2 3 2 2 2 2 3 5
4 4 3 2 2 2 2 3 3 3 3 3 3 2 1 1 1 0 1 1 2 2 1 1 1 1 2 1 1 2 3 3 2 2 3 2 2 3 2 3 2 2 1 2
4 4 3 2 3 3 3 3 4 4 4 4 4 3 2 1 1 1 1 1 2 2 1 1 1 1 2 2 2 2 2 2 3 3 3 2 2 2 2 2 3 2 2 1
4 5 4 4 4 4 4 4 4 4 4 4 4 4 2 2 1 1 1 1 1 1 1 1 1 1 2 2 2 3 3 2 3 4 3 2 2 3 3 2 3 3 3 1
5 5 5 4 4 4 5 4 4 4 4 4 5 4 3 3 3 2 1 1 1 2 2 1 2 2 2 2 3 3 4 3 3 3 3 2 3 3 3 3 4 4 3 2
4 4 4 5 4 4 4 4 4 4 4 3 4 4 3 3 2 2 1 2 2 2 1 2 1 3 3 3 3 3 4 4 4 3 3 2 3 3 4 4 4 3 3 2
3 3 4 4 3 3 3 3 4 4 3 4 4 4 3 3 2 2 2 2 3 2 1 1 3 4 3 2 4 4 4 5 4 4 4 4 4 4 4 4 4 3 3 2
4 4 4 3 3 2 3 3 3 3 3 3 3 3 3 3 3 3 3 3 2 1 2 2 3 3 3 3 4 5 5 5 5 4 4 4 4 4 4 4 3 3 2 3
3 3 4 4 3 2 2 3 3 3 3 3 3 3 3 3 4 3 3 3 2 1 3 3 3 2 2 4 4 5 5 5 5 4 4 4 4 4 4 4 3 2 2 2
3 3 4 4 3 2 2 2 3 3 3 3 3 3 4 4 4 4 3 2 2 3 3 3 1 1 4 4 4 5 4 4 4 4 4 4 4 4 4 3 3 3 2 2
3 4 4 3 2 2 2 2 2 2 2 3 3 4 4 4 4 4 3 2 2 3 3 1 3 4 4 4 4 4 4 4 3 3 3 3 3 3 3 3 3 3 2 3
4 4 4 3 2 2 2 2 2 2 3 3 3 3 3 3 3 3 2 3 3 4 3 3 5 5 4 4 4 4 3 3 3 3 3 3 3 3 2 3 2 2 2 3
3 3 3 3 3 2 2 2 2 2 2 2 2 2 2 2 3 3 2 3 4 4 4 3 3 3 4 4 4 4 3 3 3 3 3 3 3 3 3 2 3 3 3 3
3 3 2 2 2 2 2 2 2 1 1 1 2 2 3 2 2 2 3 2 2 3 3 3 3 3 3 3 3 3 3 3 3 2 2 2 3 3 3 3 2 2 3 3
Wind_Direction
264 266 262 247 243 246 251 261 265 269 235 175 141 126 127 123 116 109 94 80 76 77 81 84 91 101 108 122 125 133 140 152 162 165 166 172 174 174 179 192 192 188 216 236
274 271 273 270 257 247 246 255 256 262 265 114 124 119 132 134 132 124 107 88 69 71 79 81 80 92 106 116 117 125 141 150 141 159 166 167 175 172 178 191 205 209 215 218
274 276 272 266 271 278 278 266 273 265 155 121 108 116 125 118 113 106 98 85 71 63 74 88 91 106 121 124 126 131 143 147 152 172 185 184 192 185 193 198 201 206 216 195
271 270 261 262 266 266 274 287 282 279 118 122 117 107 92 85 89 84 75 72 58 44 64 96 104 96 108 118 128 146 157 164 167 181 183 183 203 203 203 202 209 211 213 190
266 267 264 265 273 264 262 297 313 8 97 112 121 113 80 65 65 72 68 63 47 29 31 60 74 71 121 150 147 156 168 178 179 188 195 198 209 210 203 205 216 217 212 206
256 263 267 292 323 313 281 248 11 67 102 119 132 145 89 72 66 59 59 59 42 32 41 63 61 64 72 146 147 163 181 193 194 193 205 209 212 202 203 213 225 229 219 210
250 260 270 318 313 296 276 52 43 70 76 69 54 62 81 78 69 61 55 58 53 42 42 58 54 50 51 68 94 157 220 210 206 191 201 207 198 196 204 219 224 228 225 221
253 258 271 352 347 9 46 60 58 57 66 75 78 79 78 80 73 59 51 49 52 50 44 53 54 50 43 35 24 38 49 252 213 200 224 212 193 206 207 214 221 216 213 227
300 312 40 30 46 45 43 58 60 63 68 82 82 81 76 80 72 61 54 44 40 47 49 49 49 46 25 14 20 37 21 314 262 234 235 220 210 218 211 207 225 219 220 230
316 290 52 47 51 54 46 48 51 57 57 72 80 73 80 75 74 63 58 44 41 45 44 35 28 25 10 7 12 14 301 269 247 229 241 213 213 219 215 218 225 225 233 249
300 311 328 36 30 36 42 39 38 47 33 27 56 58 86 88 84 78 71 46 40 48 47 33 25 20 9 20 10 349 301 278 269 250 228 212 229 256 239 219 224 225 233 244
297 339 336 355 22 12 17 17 18 19 11 7 6 358 91 120 106 76 57 54 40 26 8 0 356 360 15 14 358 312 284 283 281 273 232 235 232 252 1 255 196 194 206 223
327 338 343 339 350 1 8 6 0 358 348 332 324 318 294 140 127 102 83 10 13 342 336 338 327 330 0 350 326 299 291 289 284 280 253 242 239 236 247 294 242 214 208 211
330 327 308 315 322 337 340 337 329 319 314 303 298 297 288 121 109 122 293 320 323 310 306 313 312 322 338 321 305 299 292 288 288 289 278 258 254 251 245 246 256 247 228 216
309 300 290 310 320 308 301 300 301 302 305 310 306 283 231 208 212 304 329 327 316 292 287 311 338 351 349 324 302 289 291 292 294 292 284 271 261 255 259 266 263 256 232 215
274 273 272 273 273 276 280 281 288 293 298 300 298 290 257 216 200 222 265 282 278 297 324 334 332 350 344 335 325 302 290 302 292 287 283 283 290 287 278 273 273 263 249 237
258 254 253 262 265 272 278 277 276 283 289 290 288 275 261 247 239 240 246 271 306 323 319 309 315 345 329 319 310 303 296 290 267 277 293 309 307 300 299 294 293 291 278 218
264 263 263 264 263 264 269 275 275 271 270 270 277 270 251 248 254 260 265 273 299 310 312 325 337 324 305 295 288 291 296 300 296 295 294 296 302 294 291 289 280 277 282 231
269 269 271 269 269 269 268 270 273 273 274 272 273 271 260 252 252 241 241 257 261 271 305 351 336 294 292 302 307 291 293 291 286 288 290 283 276 275 278 276 276 277 284 286
299 285 277 271 263 261 266 270 271 264 263 267 266 263 254 249 247 248 250 265 271 285 305 314 292 289 291 303 302 290 287 286 288 286 279 276 275 278 281 283 284 286 286 286
301 290 277 270 266 260 264 267 266 264 262 263 261 253 241 238 239 248 254 259 247 256 274 257 265 280 295 310 289 284 285 287 288 287 283 284 285 281 279 278 282 284 287 295
298 298 302 296 276 270 269 265 262 262 255 241 234 240 236 234 238 246 254 260 260 258 263 269 281 307 309 298 287 288 287 289 291 294 296 299 302 299 293 290 287 284 284 284
309 303 295 286 274 267 269 263 249 248 244 235 233 235 245 254 253 253 258 260 255 235 250 274 269 241 276 280 288 287 287 287 288 292 294 297 296 299 307 308 304 303 304 305
324 316 305 294 281 268 263 260 261 236 228 244 243 238 242 250 255 254 252 231 234 246 269 247 213 239 253 271 277 276 280 286 291 294 293 290 293 302 308 302 296 297 299 300
313 305 293 286 271 257 247 238 247 247 241 245 255 252 250 254 263 268 261 260 241 238 254 229 220 225 247 275 275 274 277 284 295 298 293 298 295 292 290 293 308 310 301 294
295 294 299 289 285 273 257 247 248 253 256 258 256 260 265 258 252 247 244 248 255 250 260 250 229 228 245 255 263 267 266 259 261 269 277 284 289 295 300 301 305 305 304 305
297 299 298 300 295 279 267 259 263 273 269 268 284 289 290 288 281 273 273 277 274 268 270 272 264 258 261 266 272 275 278 277 278 288 297 301 302 306 304 300 306 307 299 295